Time,TemperatureF,DewpointF,PressureIn,WindDirection,WindDirectionDegrees,WindSpeedMPH,WindSpeedGustMPH,Humidity,HourlyPrecipIn,Conditions,Clouds,dailyrainin,SoftwareType,DateUTC
2013-01-25 06:19:00,32.5,31.5,30.32,ESE,117,0.0,0.0,96,0.00,,,0.00,Wunderground v.1.15,2013-01-25 14:19:00,
2013-01-25 06:24:00,32.5,31.5,30.32,ESE,117,0.0,0.0,96,0.00,,,0.00,Wunderground v.1.15,2013-01-25 14:24:00,
2013-01-25 06:26:00,32.5,31.5,30.32,ESE,117,0.0,0.0,96,0.00,,,0.00,Wunderground v.1.15,2013-01-25 14:26:00,
2013-01-25 06:32:00,32.4,31.4,30.32,ESE,117,0.0,0.0,96,0.00,,,0.00,Wunderground v.1.15,2013-01-25 14:32:00,
2013-01-25 06:38:00,32.4,31.4,30.32,ESE,117,0.0,0.0,96,0.00,,,0.00,Wunderground v.1.15,2013-01-25 14:38:00,
2013-01-25 06:40:00,32.4,31.4,30.32,ESE,117,0.0,0.0,96,0.00,,,0.00,Wunderground v.1.15,2013-01-25 14:40:00,
2013-01-25 06:46:00,32.2,31.2,30.32,ESE,117,0.0,0.0,96,0.00,,,0.00,Wunderground v.1.15,2013-01-25 14:46:00,
2013-01-25 06:51:00,32.1,31.1,30.32,ESE,117,0.0,0.0,96,0.00,,,0.00,Wunderground v.1.15,2013-01-25 14:51:00,
2013-01-25 06:58:00,31.9,30.9,30.32,ESE,117,0.0,1.0,96,0.00,,,0.00,Wunderground v.1.15,2013-01-25 14:58:00,
2013-01-25 07:04:00,31.8,30.8,30.32,ESE,117,0.0,0.0,96,0.00,,,0.00,Wunderground v.1.15,2013-01-25 15:04:00,
2013-01-25 07:10:00,31.8,30.8,30.32,ESE,117,0.0,0.0,96,0.00,,,0.00,Wunderground v.1.15,2013-01-25 15:10:00,
2013-01-25 07:16:00,31.8,30.8,30.32,ESE,117,0.0,1.0,96,0.00,,,0.00,Wunderground v.1.15,2013-01-25 15:16:00,
2013-01-25 07:22:00,31.8,30.8,30.32,ESE,117,0.0,2.0,96,0.00,,,0.00,Wunderground v.1.15,2013-01-25 15:22:00,
2013-01-25 07:28:00,31.8,30.8,30.32,ESE,117,0.0,2.0,96,0.00,,,0.00,Wunderground v.1.15,2013-01-25 15:28:00,
2013-01-25 07:33:00,31.8,30.8,30.32,ESE,117,0.0,0.0,96,0.00,,,0.00,Wunderground v.1.15,2013-01-25 15:33:00,
2013-01-25 07:40:00,31.9,30.9,30.32,ESE,117,0.0,0.0,96,0.00,,,0.00,Wunderground v.1.15,2013-01-25 15:40:00,
2013-01-25 07:46:00,31.9,30.9,30.32,ESE,117,0.0,0.0,96,0.00,,,0.00,Wunderground v.1.15,2013-01-25 15:46:00,
2013-01-25 07:52:00,32.1,31.1,30.32,ESE,117,0.0,0.0,96,0.00,,,0.00,Wunderground v.1.15,2013-01-25 15:52:00,
2013-01-25 07:58:00,32.1,31.1,30.32,ESE,117,0.0,0.0,96,0.00,,,0.00,Wunderground v.1.15,2013-01-25 15:58:00,
2013-01-25 08:03:00,32.1,31.1,30.32,ESE,117,0.0,0.0,96,0.00,,,0.00,Wunderground v.1.15,2013-01-25 16:03:00,
2013-01-25 08:10:00,32.2,31.2,30.32,ESE,117,0.0,1.0,96,0.00,,,0.00,Wunderground v.1.15,2013-01-25 16:10:00,
2013-01-25 08:16:00,32.4,31.4,30.32,ESE,117,0.0,1.0,96,0.00,,,0.00,Wunderground v.1.15,2013-01-25 16:16:00,
2013-01-25 08:22:00,32.4,31.4,30.32,ESE,117,0.0,0.0,96,0.00,,,0.00,Wunderground v.1.15,2013-01-25 16:22:00,
2013-01-25 08:28:00,32.4,31.4,30.32,ESE,117,0.0,0.0,96,0.00,,,0.00,Wunderground v.1.15,2013-01-25 16:28:00,
2013-01-25 08:34:00,32.5,31.5,30.32,ESE,117,0.0,0.0,96,0.00,,,0.00,Wunderground v.1.15,2013-01-25 16:34:00,
2013-01-25 08:40:00,32.7,31.7,30.32,ESE,117,0.0,0.0,96,0.00,,,0.00,Wunderground v.1.15,2013-01-25 16:40:00,
2013-01-25 08:46:00,32.8,31.8,30.32,ESE,117,0.0,0.0,96,0.00,,,0.00,Wunderground v.1.15,2013-01-25 16:46:00,
2013-01-25 08:51:00,32.9,31.9,30.32,ESE,117,0.0,0.0,96,0.00,,,0.00,Wunderground v.1.15,2013-01-25 16:51:00,
2013-01-25 08:58:00,33.1,32.1,30.32,ESE,117,0.0,0.0,96,0.00,,,0.00,Wunderground v.1.15,2013-01-25 16:58:00,
2013-01-25 09:04:00,33.2,32.2,30.32,ESE,117,0.0,0.0,96,0.00,,,0.00,Wunderground v.1.15,2013-01-25 17:04:00,
2013-01-25 11:52:00,39.6,38.8,30.27,ESE,116,0.0,0.0,97,0.00,,,0.00,Wunderground v.1.15,2013-01-25 19:52:00,
2013-01-25 11:58:00,39.6,38.6,30.27,ESE,113,0.0,0.0,96,0.00,,,0.00,Wunderground v.1.15,2013-01-25 19:58:00,
2013-01-25 12:04:00,39.9,38.9,30.25,ESE,113,0.0,1.0,96,0.00,,,0.00,Wunderground v.1.15,2013-01-25 20:04:00,
2013-01-25 12:10:00,40.5,39.4,30.25,ESE,113,0.0,0.0,96,0.00,,,0.00,Wunderground v.1.15,2013-01-25 20:10:00,
2013-01-25 12:16:00,41.5,40.4,30.23,ESE,113,0.0,0.0,96,0.00,,,0.00,Wunderground v.1.15,2013-01-25 20:16:00,
2013-01-25 12:21:00,41.9,40.8,30.23,East,83,0.0,1.0,96,0.00,,,0.00,Wunderground v.1.15,2013-01-25 20:21:00,
2013-01-25 12:28:00,42.5,40.9,30.23,East,88,0.0,1.0,94,0.00,,,0.00,Wunderground v.1.15,2013-01-25 20:28:00,
2013-01-25 12:34:00,42.5,40.3,30.22,East,88,0.0,0.0,92,0.00,,,0.00,Wunderground v.1.15,2013-01-25 20:34:00,
2013-01-25 12:40:00,42.9,40.5,30.22,East,89,0.0,0.0,91,0.00,,,0.00,Wunderground v.1.15,2013-01-25 20:40:00,
2013-01-25 12:46:00,43.3,40.3,30.20,NW,306,0.0,1.0,89,0.00,,,0.00,Wunderground v.1.15,2013-01-25 20:46:00,
2013-01-25 12:51:00,43.1,39.5,30.20,NNW,330,2.0,7.0,87,0.00,,,0.00,Wunderground v.1.15,2013-01-25 20:51:00,
2013-01-25 12:58:00,43.2,39.6,30.20,NNW,344,2.0,7.0,87,0.00,,,0.00,Wunderground v.1.15,2013-01-25 20:58:00,
2013-01-25 13:04:00,43.2,39.6,30.20,North,0,1.0,1.0,87,0.00,,,0.00,Wunderground v.1.15,2013-01-25 21:04:00,
2013-01-25 13:10:00,43.3,39.4,30.20,North,0,0.0,0.0,86,0.00,,,0.00,Wunderground v.1.15,2013-01-25 21:10:00,
2013-01-25 13:16:00,43.8,39.6,30.18,NW,326,0.0,1.0,85,0.00,,,0.00,Wunderground v.1.15,2013-01-25 21:16:00,
2013-01-25 16:30:00,46.2,38.4,30.13,West,274,0.0,0.0,74,0.00,,,0.00,Wunderground v.1.15,2013-01-26 00:30:00,
2013-01-25 16:36:00,46.2,38.4,30.12,West,274,0.0,0.0,74,0.00,,,0.00,Wunderground v.1.15,2013-01-26 00:36:00,
2013-01-25 16:41:00,46.1,38.6,30.12,North,1,0.0,1.0,75,0.00,,,0.00,Wunderground v.1.15,2013-01-26 00:41:00,
2013-01-25 16:48:00,45.7,38.6,30.12,NE,38,0.0,0.0,76,0.00,,,0.00,Wunderground v.1.15,2013-01-26 00:48:00,
2013-01-25 16:54:00,45.4,38.9,30.12,NE,38,0.0,0.0,78,0.00,,,0.00,Wunderground v.1.15,2013-01-26 00:54:00,
2013-01-25 17:00:00,44.6,38.8,30.12,NE,38,0.0,0.0,80,0.00,,,0.00,Wunderground v.1.15,2013-01-26 01:00:00,
2013-01-25 17:06:00,44.3,38.5,30.13,NE,38,0.0,0.0,80,0.00,,,0.00,Wunderground v.1.15,2013-01-26 01:06:00,
2013-01-25 17:12:00,44.2,38.7,30.13,NE,38,0.0,0.0,81,0.00,,,0.00,Wunderground v.1.15,2013-01-26 01:12:00,
2013-01-25 17:18:00,44.1,38.6,30.13,NE,38,0.0,0.0,81,0.00,,,0.00,Wunderground v.1.15,2013-01-26 01:18:00,
2013-01-25 17:24:00,44.1,38.6,30.13,NE,38,0.0,0.0,81,0.00,,,0.00,Wunderground v.1.15,2013-01-26 01:24:00,
2013-01-25 17:30:00,44.1,38.6,30.13,NE,38,0.0,0.0,81,0.00,,,0.00,Wunderground v.1.15,2013-01-26 01:30:00,
2013-01-25 17:42:00,43.8,38.3,30.14,NE,38,0.0,0.0,81,0.00,,,0.00,Wunderground v.1.15,2013-01-26 01:42:00,
2013-01-25 17:48:00,43.3,37.9,30.14,NE,38,0.0,0.0,81,0.00,,,0.00,Wunderground v.1.15,2013-01-26 01:48:00,
2013-01-25 17:54:00,42.8,38.0,30.14,North,0,0.0,0.0,83,0.00,,,0.00,Wunderground v.1.15,2013-01-26 01:54:00,
2013-01-25 17:59:00,42.5,38.0,30.14,North,359,0.0,0.0,84,0.00,,,0.00,Wunderground v.1.15,2013-01-26 01:59:00,
2013-01-25 23:28:00,35.3,32.4,30.12,NNE,17,1.0,1.0,89,0.00,,,0.00,Wunderground v.1.15,2013-01-26 07:28:00,
2013-01-25 23:29:00,35.3,32.4,30.12,NNE,17,1.0,1.0,89,0.00,,,0.00,Wunderground v.1.15,2013-01-26 07:29:00,
2013-01-25 23:36:00,34.9,32.0,30.13,NNE,17,0.0,1.0,89,0.00,,,0.00,Wunderground v.1.15,2013-01-26 07:36:00,
2013-01-25 23:42:00,34.3,31.4,30.13,NE,45,0.0,0.0,89,0.00,,,0.00,Wunderground v.1.15,2013-01-26 07:42:00,
2013-01-25 23:48:00,34.0,31.1,30.11,NE,45,0.0,0.0,89,0.00,,,0.00,Wunderground v.1.15,2013-01-26 07:48:00,
2013-01-25 23:54:00,33.8,31.2,30.11,NE,45,0.0,0.0,90,0.00,,,0.00,Wunderground v.1.15,2013-01-26 07:54:00,
2013-01-25 23:59:00,34.3,31.9,30.11,NE,45,0.0,0.0,91,0.00,,,0.00,Wunderground v.1.15,2013-01-26 07:59:00,